Weather History for Dansville, NY

Change the Weather History Date:

Thursday, May 2, 2013

  Actual Average Record
Temperature  
Mean Temperature 62 °F -  
Max Temperature 79 °F 65 °F 90 °F (1970)
Min Temperature 46 °F 40 °F 23 °F (1979)
Degree Days  
Heating Degree Days 3    
Growing Degree Days 12 (Base 50)    
Moisture  
Dew Point 36 °F    
Average Humidity 40    
Maximum Humidity 71    
Minimum Humidity 20    
Precipitation  
Precipitation 0.00 in - - ()
Sea Level Pressure  
Sea Level Pressure 30.37 in    
Wind  
Wind Speed 7 mph (SSE)    
Max Wind Speed 13 mph    
Max Gust Speed 17 mph    
Visibility 10 miles    
Events      
Averages and records for this station are not official NWS values.
T = Trace of Precipitation, MM = Missing Value Source: NWS Daily Summary

Daily Weather History Graph

Daily Weather History Graph

Search for Another Location

Airport:

Trip Planner

Search our weather history database for the weather conditions in past years. The results will help you decide how hot, cold, wet, or windy it might be!

Date:

Astronomy

May. 02, 2013 Rise Set
Actual Time 6:03 AM EDT 8:12 PM EDT
Civil Twilight 5:33 AM EDT 8:43 PM EDT
Nautical Twilight 4:55 AM EDT 9:21 PM EDT
Astronomical Twilight 4:13 AM EDT 10:03 PM EDT
Moon 1:59 AM EDT (5/2) 12:50 PM EDT (5/2)
Length of Visible Light 15h 10m
Length of Day
14h 08m
Waning Gibbous, 48% of the Moon is Illuminated
May 2
Waning Gibbous
May 9
New
May 18
First Quarter
May 25
Full
May 31
Last Quarter

Hourly Weather History & Observations

Time (EDT) Temp. Windchill Dew Point Humidity Pressure Visibility Wind Dir Wind Speed Gust Speed Precip Events Conditions
12:54 AM 55.0 °F - 34.0 °F 45% 30.39 in 10.0 mi SSE 6.9 mph - N/A   Clear
1:54 AM 52.0 °F - 35.1 °F 53% 30.38 in 10.0 mi SSE 6.9 mph - N/A   Clear
2:54 AM 52.0 °F - 35.1 °F 53% 30.38 in 10.0 mi SSE 8.1 mph - N/A   Clear
3:54 AM 51.1 °F - 35.1 °F 54% 30.39 in 10.0 mi SSE 9.2 mph - N/A   Clear
4:54 AM 51.1 °F - 35.1 °F 54% 30.40 in 10.0 mi South 6.9 mph - N/A   Clear
5:54 AM 46.0 °F 43.9 °F 35.1 °F 66% 30.41 in 10.0 mi SSE 4.6 mph - N/A   Clear
6:54 AM 46.0 °F 44.8 °F 37.0 °F 71% 30.43 in 10.0 mi ESE 3.5 mph - N/A   Clear
7:54 AM 55.0 °F - 37.9 °F 53% 30.44 in 10.0 mi SSE 4.6 mph - N/A   Clear
8:54 AM 62.1 °F - 35.1 °F 37% 30.44 in 10.0 mi South 10.4 mph - N/A   Clear
9:54 AM 66.0 °F - 37.0 °F 34% 30.45 in 10.0 mi South 8.1 mph - N/A   Clear
10:54 AM 69.1 °F - 34.0 °F 27% 30.44 in 10.0 mi South 6.9 mph 17.3 mph N/A   Clear
11:54 AM 72.0 °F - 34.0 °F 25% 30.42 in 10.0 mi SSE 10.4 mph - N/A   Clear
12:54 PM 75.0 °F - 30.9 °F 20% 30.40 in 10.0 mi South 12.7 mph 17.3 mph N/A   Clear
1:54 PM 75.9 °F - 36.0 °F 23% 30.38 in 10.0 mi South 11.5 mph - N/A   Clear
2:54 PM 77.0 °F - 37.9 °F 24% 30.36 in 10.0 mi ESE 9.2 mph 17.3 mph N/A   Clear
3:54 PM 78.1 °F - 36.0 °F 22% 30.34 in 10.0 mi South 10.4 mph - N/A   Clear
4:54 PM 78.1 °F - 39.0 °F 25% 30.32 in 10.0 mi SSE 12.7 mph 17.3 mph N/A   Clear
5:54 PM 77.0 °F - 37.0 °F 24% 30.30 in 10.0 mi SSE 8.1 mph - N/A   Clear
6:54 PM 75.9 °F - 34.0 °F 22% 30.30 in 10.0 mi South 6.9 mph 17.3 mph N/A   Clear
7:54 PM 73.0 °F - 33.1 °F 23% 30.30 in 10.0 mi South 3.5 mph - N/A   Clear
8:54 PM 64.0 °F - 39.9 °F 41% 30.30 in 10.0 mi SSE 4.6 mph - N/A   Clear
9:54 PM 61.0 °F - 41.0 °F 48% 30.32 in 10.0 mi SSE 3.5 mph - N/A   Clear
10:54 PM 57.9 °F - 39.9 °F 51% 30.31 in 10.0 mi South 5.8 mph - N/A   Clear
11:54 PM 55.9 °F - 39.9 °F 55% 30.31 in 10.0 mi Calm Calm - N/A   Clear